CZ-6A DEB, 54597

Orbit data source: Space-Track

CZ-6A DEB, 54597 is space debris in SSO originally from a launch on Fri, 11 Nov 2022 UTC launched from the Taiyaun Space Center, China (TSC). Debris objects in space refer to the collection of defunct objects orbiting the Earth. Examples of debris include non-operational satellites, rocket bodies, and fragments generated from explosions, collisions, or faulty payload assembly.

Loading next visibility...
Identifier
54597, 2022-151MX
Orbit
SSO
Country
Flag of CNCN / PRC
Related business
Manufacturer
SAST
Mission
Spacecraft
Bus & Motor
Unknown
Mass
Unknown
Launch date (UTC)
2022-11-11 (4 years ago)
Launch vehicle
Unknown
Launch site
Taiyaun Space Center, China (TSC)
Object type
Payload
Rocket body
Debris
Shape & HBR
Unknown shape, 0.1 m
Radar Cross Section
Small (<0.1 m²)

Expand to show TLE details & history
Last TLE update: 2 days ago

TLE from 2 days ago
0 CZ-6A DEB
1 54597U 22151MX  26171.34268949  .00002023  00000-0  68827-3 0  9994
2 54597  98.6554 196.7133 0071701  60.1987 300.6303 14.36201959187670
Epoch: 2026-06-20T08:13Z
TLE epoch observation values (Epoch: 2026-06-20T08:13:28.371Z)
Latitude
-0.00009°
Longitude
164.78642°
Altitude
748.165 km
Speed
7.494 km/s
True Right ascension
13h 06m 51s
True Declination
0° 00' 00"
Sunlit
Object was in daylight at epoch
Visualization orbit readout
Latitude
Unknown
Longitude
Unknown
Altitude
Unknown
Speed
Unknown
Apparent Right ascension
Unknown
Apparent Declination
Unknown
Sunlit
N/A
Visualization observer readout
Local Sidereal Time
21:23:40
Azimuth
Unknown
Elevation
Unknown
Doppler factor
Unknown
Orbital elements
Apogee altitude
819.449 km
Perigee altitude
716.969 km
Semi-major axis
7,146.346 km
Eccentricity
0.00717
Inclination
98.6554°
RAAN
196.7133°
Arg. of periapsis
60.1987°
True anomaly
299.92008°
Mean anomaly
300.6303°
Eccentric anomaly
300.27551°
Mean motion
3.59267 °/min
Orbital period
100.2 mins
BSTAR
0.00068827
Loading maneuver chart data...
Computing Atmospheric mass density...
Loading historical data...
Loading historical data...
Loading historical data...
Loading historical data...
Loading historical data...
Loading historical data...
Loading historical data...

Documentation

Showing up to 5 results
|